Location: Newark
(37.3981°N, 88.3750°W)
Time: 11:38:51
(UTC+00:00)

Envisat - Visible Passes

Search period start: 21 October 2019 00:00
Search period end: 31 October 2019 00:00
Orbit: 764 x 766 km, 98.1° (Epoch: 21 October)

Date Brightness Start Highest point End Pass type
(mag) Time Alt. Az. Time Alt. Az. Time Alt. Az.
21 Oct 3.2 00:09:39 10° S 00:14:43 75° WSW 00:19:49 10° NNW visible
21 Oct 3.2 23:33:12 10° SE 23:38:03 47° ENE 23:42:54 10° N visible
22 Oct 5.8 01:13:54 10° SW 01:17:17 18° W 01:20:40 10° NW visible
23 Oct 4.4 00:35:31 10° SSW 00:40:16 41° W 00:45:04 10° NNW visible
23 Oct 3.0 23:58:23 10° SSE 00:03:28 85° ENE 00:08:33 10° NNW visible
25 Oct 5.4 01:01:58 10° SW 01:05:55 23° W 01:09:54 10° NW visible
25 Oct 6.3 11:34:26 10° ENE 11:37:16 15° E 11:40:05 10° SE visible
26 Oct 3.8 00:24:02 10° S 00:28:58 53° W 00:33:57 10° NNW visible
26 Oct 2.9 23:47:12 10° SSE 23:52:13 67° ENE 23:57:16 10° N visible
27 Oct 6.2 01:29:39 10° WSW 01:31:40 12° W 01:33:41 10° WNW visible
28 Oct 5.0 00:50:13 10° SSW 00:54:35 29° W 00:58:59 10° NW visible
28 Oct 6.6 11:24:22 10° ENE 11:25:53 11° E 11:27:23 10° ESE visible
29 Oct 3.3 00:12:39 10° S 00:17:41 68° WSW 00:22:46 10° NNW visible
29 Oct 3.1 23:36:05 10° SSE 23:41:00 52° ENE 23:45:55 10° N visible
30 Oct 5.9 01:17:12 10° SW 01:20:17 16° W 01:23:22 10° NW visible
30 Oct 6.0 11:47:49 10° NE 11:51:38 21° E 11:55:26 10° SE visible
